User: anonymous   Login
Location: Unspecified
(0.0000°N, 0.0000°E)
Time: 10:24:47
(UTC+00:00)
Language:

SSETI-EXPRESS - Orbit

View from above orbital plane
View from above orbital plane
View from above satellite
View from above satellite

Ground track
Ground track

The orbit data is extracted from the following two-line orbital elements,

1 28894U 05043E   21168.60084593  .00000064  00000-0  22274-4 0  9997
2 28894  98.0799 295.7297 0015894 240.4844 119.4773 14.61704363833808
Epoch (UTC): 17 June 2021 14:25:13
Eccentricity: 0.0015894
inclination: 98.0799°
perigee height: 676 km
apogee height: 699 km
right ascension of ascending node: 295.7297°
argument of perigee: 240.4844°
revolutions per day: 14.61704363
mean anomaly at epoch: 119.4773°
orbit number at epoch: 83380

The dashed part of the orbit path shows where the satellite is in the earth's shadow,  

DLR